Location: Baller�as
(41.9020°N, 0.1554°W)
Time: 00:20:23
(UTC+00:00)

Cosmos 44 - Pass Details

Date: 10 August 2020
Orbit: 583 x 779 km, 65.1° (Epoch: 22 September)

Event Time Altitude Azimuth Distance (km) Brightness Sun altitude
Rises 22:28:46 0° 328° (NNW) 3,055 7.9 -28.7°
Reaches altitude 10° 22:31:03 10° 330° (NNW) 2,166 6.8 -28.8°
Enters shadow 22:35:07 59° 349° (N) 833 3.8 -29.2°
